Vorticity
nan nan nan nan nan nan nan nan nan nan nan nan nan nan nan nan nan nan nan nan nan nan nan nan nan nan nan
nan 10 8 9 11 12 12 12 11 9 7 8 10 11 12 11 14 24 27 23 14 9 11 31 23 5 nan
nan 9 8 9 12 13 12 14 11 8 10 11 11 14 12 13 20 21 16 17 13 18 36 35 10 10 nan
nan 8 9 8 9 10 13 11 8 13 15 16 16 16 19 19 18 8 6 15 29 22 20 19 17 15 nan
nan 8 7 6 9 13 11 9 10 13 14 16 19 18 19 18 13 7 20 28 23 12 8 11 14 10 nan
nan 7 7 8 8 9 9 8 13 12 10 13 10 10 13 13 8 18 23 16 12 12 7 7 7 7 nan
nan 7 7 8 9 10 10 10 11 7 14 13 8 9 10 9 24 27 10 8 9 8 8 11 11 11 nan
nan 5 4 4 8 10 10 13 14 13 11 10 9 8 10 17 20 18 10 8 10 15 11 7 9 11 nan
nan 10 9 12 11 14 14 11 12 13 11 10 9 9 9 8 6 8 8 10 12 14 13 11 9 3 nan
nan 19 21 20 17 14 11 11 11 11 10 10 10 10 9 8 7 6 10 10 11 7 7 7 7 6 nan
nan 15 18 16 16 11 10 10 11 10 7 10 10 9 11 10 8 9 10 8 10 12 8 7 9 10 nan
nan 11 14 15 13 10 10 10 11 9 12 12 9 11 9 10 10 8 10 11 12 9 7 9 5 5 nan
nan 11 15 15 11 12 12 11 11 11 14 13 13 11 10 12 11 10 8 9 11 10 10 8 6 7 nan
nan 12 13 13 11 11 11 12 12 10 9 13 18 12 10 11 12 11 11 11 9 10 10 10 10 11 nan
nan 13 13 11 11 11 10 11 10 10 10 11 11 11 12 13 13 12 10 11 12 10 9 9 9 11 nan
nan 15 15 12 10 11 11 11 11 12 11 11 9 7 6 9 14 13 10 11 11 11 10 8 9 10 nan
nan nan nan nan nan nan nan nan nan nan nan nan nan nan nan nan nan nan nan nan nan nan nan nan nan nan nan
CAPE
0 0 0 0 0 0 0 0 0 0 1 4 36 43 49 90 84 92 125 127 154 146 115 72 110 42 23
0 0 0 1 1 1 2 0 0 0 0 14 22 12 84 93 121 92 91 157 131 71 50 63 85 56 25
0 0 2 1 3 2 0 0 0 1 7 2 6 10 26 55 116 19 0 0 2 14 4 77 64 43 36
1 0 1 2 2 6 8 9 7 5 2 10 14 8 13 24 22 4 0 0 22 44 23 60 66 37 10
1 0 0 2 7 11 22 9 6 8 8 19 0 0 4 13 0 1 0 43 33 3 12 48 9 2 2
5 1 2 7 24 39 40 19 7 0 0 0 0 1 2 0 8 17 32 20 32 32 32 21 5 3 6
6 3 2 1 25 19 7 6 2 0 2 0 0 0 1 0 0 32 10 7 8 6 9 17 18 18 18
0 1 1 0 22 4 3 1 0 0 2 0 0 0 2 0 15 13 11 8 14 13 31 23 18 24 15
16 29 22 46 47 10 0 0 0 0 0 0 0 0 0 0 1 16 15 13 10 21 15 14 28 19 10
3 1 8 0 5 4 5 1 0 0 0 0 0 0 0 0 0 0 2 14 32 19 16 15 0 0 0
3 5 0 0 0 0 0 0 1 0 0 0 0 0 0 0 0 0 0 0 0 7 23 8 1 0 0
6 2 2 0 0 0 0 0 0 0 0 1 0 0 0 0 0 0 0 0 0 0 0 12 19 2 0
7 0 1 0 0 0 0 0 0 0 0 0 0 0 0 0 0 0 0 0 0 0 0 0 0 0 0
5 3 0 0 0 0 0 0 0 0 0 0 0 0 0 0 0 0 0 0 0 0 0 0 0 0 0
3 5 0 0 0 0 0 0 0 0 0 0 0 0 0 0 0 0 0 0 0 0 0 0 0 0 0
4 0 0 0 0 0 0 0 0 0 0 0 0 0 0 0 2 0 0 0 0 0 0 0 0 0 0
2 0 0 0 0 0 0 0 0 0 0 0 0 0 0 0 0 1 0 0 0 0 0 0 0 0 0